TimeAST,TemperatureF,Dew PointF,Humidity,Sea Level PressureIn,VisibilityMPH,Wind Direction,Wind SpeedMPH,Gust SpeedMPH,PrecipitationIn,Events,Conditions,WindDirDegrees,DateUTC
12:00 AM,78.8,69.8,74,30.06,6.2,East,15.0,-,N/A,,Mostly Cloudy,90,2013-12-23 04:00:00
1:00 AM,77.0,69.8,78,30.04,6.2,ENE,15.0,-,N/A,,Scattered Clouds,70,2013-12-23 05:00:00
2:00 AM,77,70,74,30.03,19,ENE,16.1,,,Rain,Light Rain Showers,70,2013-12-23 06:00:00
2:00 AM,77.0,69.8,78,30.01,6.2,ENE,16.1,-,N/A,,Scattered Clouds,70,2013-12-23 06:00:00
3:00 AM,77.0,69.8,78,30.01,6.2,East,12.7,-,N/A,,Scattered Clouds,90,2013-12-23 07:00:00
4:00 AM,77.0,69.8,78,29.98,6.2,N/A,N/A,-,N/A,,Scattered Clouds,70,2013-12-23 08:00:00
5:00 AM,78,69,68,30.01,9,ENE,18.4,,,,Mostly Cloudy,70,2013-12-23 09:00:00
6:00 AM,77.0,68.0,74,30.01,6.2,East,20.7,-,N/A,Rain,Light Rain Showers,80,2013-12-23 10:00:00
7:00 AM,77.0,69.8,78,30.04,6.2,ENE,20.7,-,N/A,Rain,Light Rain Showers,70,2013-12-23 11:00:00
8:00 AM,79,69,63,30.05,11,East,19.6,,,Rain,Light Rain Showers,90,2013-12-23 12:00:00
8:00 AM,78.8,69.8,74,30.04,6.2,East,18.4,-,N/A,,Scattered Clouds,80,2013-12-23 12:00:00
9:00 AM,78.8,69.8,74,30.06,6.2,ENE,18.4,-,N/A,,Scattered Clouds,70,2013-12-23 13:00:00
10:00 AM,78.8,69.8,74,30.06,6.2,ENE,16.1,-,N/A,,Partly Cloudy,70,2013-12-23 14:00:00
11:00 AM,80,70,64,30.06,11,ENE,16.1,,,Rain,Light Rain Showers,60,2013-12-23 15:00:00
11:00 AM,80.6,69.8,70,30.04,6.2,ENE,17.3,28.8,N/A,Rain,Light Rain Showers,60,2013-12-23 15:00:00
12:00 PM,78.8,69.8,74,30.04,6.2,ENE,16.1,-,N/A,,Scattered Clouds,70,2013-12-23 16:00:00
1:00 PM,80.6,69.8,70,30.01,6.2,NE,18.4,-,N/A,,Scattered Clouds,50,2013-12-23 17:00:00
1:16 PM,77.0,68.0,74,30.01,-9999.0,NE,19.6,38.0,N/A,Rain,Heavy Rain Showers,50,2013-12-23 17:16:00
2:00 PM,72,69,86,30.01,2,NE,17.3,,,Rain-Thunderstorm,Heavy Thunderstorms and Rain,40,2013-12-23 18:00:00
2:00 PM,71.6,68.0,88,30.01,1.6,NE,17.3,-,N/A,Rain-Thunderstorm,Heavy Thunderstorms and Rain,40,2013-12-23 18:00:00
2:27 PM,73.4,68.0,83,30.01,0.9,ENE,21.9,34.5,N/A,Rain-Thunderstorm,Heavy Thunderstorms and Rain,60,2013-12-23 18:27:00
3:00 PM,69.8,68.0,94,30.01,1.6,NE,17.3,-,N/A,Rain-Thunderstorm,Heavy Thunderstorms and Rain,40,2013-12-23 19:00:00
4:00 PM,75.2,68.0,78,29.98,4.3,NE,18.4,-,N/A,Rain-Thunderstorm,Thunderstorms and Rain,50,2013-12-23 20:00:00
4:33 PM,75.2,69.8,83,30.01,0.9,ENE,21.9,36.8,N/A,Rain-Thunderstorm,Heavy Thunderstorms and Rain,60,2013-12-23 20:33:00
5:00 PM,73,68,78,30.02,2,ENE,20.7,,,Rain-Thunderstorm,Heavy Thunderstorms and Rain,70,2013-12-23 21:00:00
5:00 PM,73.4,68.0,83,30.01,1.9,ENE,20.7,-,N/A,Rain-Thunderstorm,Heavy Thunderstorms and Rain,70,2013-12-23 21:00:00
6:00 PM,73.4,68.0,83,30.01,4.3,NNE,11.5,-,N/A,Rain,Rain Showers,30,2013-12-23 22:00:00
7:00 PM,73.4,68.0,83,30.01,4.3,Variable,3.5,-,N/A,Rain-Thunderstorm,Light Thunderstorms and Rain,0,2013-12-23 23:00:00
8:00 PM,75,67,69,30.01,3,East,23.0,,,Rain-Thunderstorm,Thunderstorms and Rain,80,2013-12-24 00:00:00
8:00 PM,75.2,68.0,78,30.01,3.1,East,23.0,-,N/A,Rain-Thunderstorm,Thunderstorms and Rain,80,2013-12-24 00:00:00
9:00 PM,75.2,69.8,83,30.01,3.1,ENE,10.4,-,N/A,Rain-Thunderstorm,Thunderstorms and Rain,70,2013-12-24 01:00:00
10:00 PM,75.2,69.8,83,30.01,3.1,East,11.5,-,N/A,Rain-Thunderstorm,Thunderstorms and Rain,80,2013-12-24 02:00:00
11:00 PM,76,69,72,29.95,4,East,18.4,,,Rain,Heavy Rain,100,2013-12-24 03:00:00
11:00 PM,75.2,69.8,83,29.92,4.3,East,19.6,-,N/A,Rain,Rain,90,2013-12-24 03:00:00